Tracking 25734 objects as of 27-May-2022
HD Live streaming from Space Station
objects crossing your sky now

JILIN-01-08

Track JILIN-01-08 now!
10-day predictions


NORAD ID: 43160
Int'l Code: 2018-008F
Perigee: 534.1 km
Apogee: 545.4 km
Inclination: 97.3 °
Period: 95.3 minutes
Semi major axis: 6910 km
RCS: Unknown
Launch date: January 19, 2018
Source: People's Republic of China (PRC)
Launch site: Jiuquan Satellite Launch Center, China (JSC)
aabbcc
Your satellite tracking list
Your tracking list is empty




NASA's NSSDC Master Catalog

Two Line Element Set (TLE):
1 43160U 18008F   22146.93777838  .00003216  00000-0  19514-3 0  9993
2 43160  97.3458 201.1076 0008137 232.9027 251.4269 15.11183149239730
Source of the keplerian elements: AFSPC